Regional Weather Roundup
Issued by NWS

Home | Current Version | Previous Version | Text Only | Print | Product List | Glossary Off
Versions: 1 2 3 4 5 6 7 8 9 10 11 12 13 14 15 16 17 18 19 20 21 22 23 24 25 26 27 28 29 30 31 32 33 34 35 36 37 38 39 40 41 42 43 44 45 46 47 48 49 50

000
ASUS45 KTFX 200910
RWRMT
MONTANA REGIONAL WEATHER ROUNDUP
NATIONAL WEATHER SERVICE GREAT FALLS MT
200 AM MST MON NOV 20 2017

NOTE: "FAIR" INDICATES FEW OR NO CLOUDS BELOW 12000 FEET WITH NO
SIGNIFICANT WEATHER AND/OR OBSTRUCTIONS TO VISIBILITY.

MTZ001>007-043-201000-
WEST OF THE DIVIDE

CITY           SKY/WX    TMP DP  RH WIND       PRES   REMARKS
KALISPELL      CLOUDY    39  25  57 SW7       29.65R
MISSOULA       FAIR      29  26  89 CALM      29.74S
BUTTE          FAIR      22  12  65 VRB5      29.78R
MULLAN PASS    LGT SNOW  26  24  92 SW8G20    29.67F VSB 1   WCI  18
ANACONDA         N/A     43   9  24 S16G25    29.73R
DEER LODGE       N/A     37  18  44 SW8       29.73R WCI  31
EUREKA           N/A     43  27  52 MISG      29.62F
HAMILTON         N/A     45  10  24 S9        29.75R
LIBBY            N/A     41  30  65 SE12G25   29.65S
PLAINS           N/A     44  28  53 W13       29.75R
$$

MTZ008-052>055-201000-
SOUTHWEST MONTANA

CITY           SKY/WX    TMP DP  RH WIND       PRES   REMARKS
BOZEMAN        FAIR      38  16  40 VRB3      29.74R
DILLON         FAIR      37  13  37 S7        29.80F WCI  32
W YELLOWSTONE  CLOUDY    27  18  69 S12       29.96F WCI  16
ENNIS          CLOUDY    41  12  30 S23G32    29.85F
TWIN BRIDGES     N/A     34  13  42 CALM      29.80F
$$

MTZ009-010-012-014-046-048-049-054-201000-
EAST SLOPES AND CENTRAL MONTANA

CITY           SKY/WX    TMP DP  RH WIND       PRES   REMARKS
CUT BANK       FAIR      42  16  34 W37G55    29.42R
GREAT FALLS    FAIR      47   9  21 SW21      29.51F
MALMSTROM AFB  FAIR      46  11  23 SW16G23   29.52F
HELENA         FAIR      31  22  69 CALM      29.64S
BOWMANS CRNR   MOCLDY    45   9  23 SW23      29.54R
CHOTEAU          N/A     48   9  20 W37G54    29.37F
FAIRFIELD      MOCLDY    46   9  22 SW14      29.50F
POWER          MOCLDY    46   9  22 SW21      29.49F
RAYNESFORD     MOCLDY    49   6  17 W30G39    29.54F
ULM            MOCLDY    47  10  22 S17       29.53F
$$

MTZ011-013-016-021-045-047-050-051-201000-
NORTH CENTRAL MONTANA

CITY           SKY/WX    TMP DP  RH WIND       PRES   REMARKS
HAVRE          FAIR      39  21  48 W20       29.43R WCI  29
LEWISTOWN      FAIR      45  14  28 SW29G37   29.54S
N BAR RANCH    FAIR      45   7  21 SW13      29.57F
CHINOOK          N/A     43  18  36 NW7       29.43R
DENTON         MOCLDY    40  16  37 MISG      29.50S
GEYSER         FAIR      46  10  23 W29G38    29.48F
GRASS RANGE    FAIR      47  11  23 SW9       29.50F
STANFORD       FAIR      47   8  20 W20G35    29.52F
WINIFRED       FAIR      45  14  29 SW22G32   29.49F
$$

MTZ017>020-022>027-061-062-201000-
NORTHEAST MONTANA

CITY           SKY/WX    TMP DP  RH WIND       PRES   REMARKS
GLASGOW        CLOUDY    49  17  28 W17G25    29.41F
GLENDIVE       FAIR      41  19  41 SW14      29.50F
JORDAN           N/A     46  21  37 W10       29.48F
SIDNEY         FAIR      34  22  61 S13       29.46F WCI  25
WOLF POINT     FAIR      32  23  69 NW5       29.44F
MALTA          CLEAR     45  18  33 W12       29.43S
PLENTYWOOD       N/A     32  21  64 CALM      29.40F
POPLAR           N/A     37  19  48 W9        29.44S WCI  31
$$

MTZ028>42-056>058-201000-
SOUTHCENTRAL AND SOUTHEAST MONTANA

CITY           SKY/WX    TMP DP  RH WIND       PRES   REMARKS
BAKER          FAIR      41  20  43 W12       29.55F
BILLINGS       MOCLDY    46  14  27 W20       29.61F
LIVINGSTON     FAIR      43  17  35 SW46G61   29.67F
MILES CITY     FAIR      33  25  72 SE7       29.53F WCI  27
BIG TIMBER     CLEAR     43  14  31 W28G36    29.63S
EKALAKA          N/A     43  11  27 SW8       29.59F
FORSYTH          N/A     50  16  25 W15G22    29.55F
HARLOWTON      FAIR      34  18  52 S9        29.61F WCI  27
LAUREL           N/A     45  14  29 W16G23    29.64S
ROUNDUP          N/A     44  14  29 S9        29.55S
$$

REGIONAL REPORTS...DAKOTAS

CITY           SKY/WX    TMP DP  RH WIND       PRES   REMARKS
WILLISTON      FAIR      29  23  78 S8        29.45F WCI  21
MINOT          FAIR      35  22  58 SW14      29.42F WCI  26
DICKINSON      FAIR      40  20  44 SW17      29.49F
BEACH          FAIR      41  16  36 W16G24    29.53F
CROSBY         FAIR      32  23  69 SW18      29.39F WCI  20
TIOGA          CLOUDY    34  21  60 SW18G24   29.44F WCI  23
BISMARCK       FAIR      26  20  77 SE3       29.54F
GRAND FORKS    FAIR      25  23  92 S8        29.55F WCI  16
FARGO          FAIR      27  21  78 SE12      29.60F WCI  17
BUFFALO SD       N/A     40  17  39 SW14      29.52F
RAPID CITY     FAIR      32  16  51 CALM      29.64F
$$

REGIONAL REPORTS...WYOMING/IDAHO/WASHINGTON

CITY           SKY/WX    TMP DP  RH WIND       PRES   REMARKS
GILLETTE       FAIR      44  10  25 SW23      29.66F
SHERIDAN       FAIR      42  18  37 VRB3      29.65R
BUFFALO WY     FAIR      42  16  34 N9        29.68F
CODY           FAIR      49   1  14 SW12G21   29.77S
YELLOWSTONE LA   N/A     14  13  95 CALM      29.98S
IDAHO FALLS    FAIR      28  24  85 CALM      30.01S
SALMON         MOCLDY    35  22  58 CALM      29.91S
BOISE          CLOUDY    39  28  64 E12       29.99R WCI  32
SPOKANE        FLURRIES  38  37  97 S13G20    29.70R WCI  30
$$

REGIONAL REPORTS...ALBERTA

CITY           SKY/WX    TMP DP  RH WIND       PRES   REMARKS
EDMONTON       CLOUDY    18   9  68 NW12G18   29.43R WCI   5
CALGARY        MOCLDY    36  21  55 N17       29.33  WCI  25
LETHBRIDGE     CLEAR     37  27  65 W30G41    29.32F WCI  25
MEDICINE HAT   MOCLDY    34  25  69 S7        29.38F WCI  28
$$

REGIONAL REPORTS...SASKATCHEWAN

CITY           SKY/WX    TMP DP  RH WIND       PRES   REMARKS
SWIFT CURRENT  MOCLDY    39  23  52 W31G40    29.26S WCI  27
REGINA         CLOUDY    30  23  74 SW20      29.28F WCI  18
SASKATOON      CLOUDY    18  14  86 W7        29.22F WCI   8
$$



USA.gov is the U.S. government's official web portal to all federal, state and local government web resources and services.